Regional Weather Roundup
Issued by NWS

Home | Current Version | Previous Version | Graphics & Text | Print | Product List | Glossary Off
Versions: 1 2 3 4 5 6 7 8 9 10 11 12 13 14 15 16 17 18 19 20 21 22 23 24 25 26 27 28 29 30 31 32 33 34 35 36 37 38 39 40 41 42 43 44 45 46 47 48 49 50

021
ASUS43 KDTX 202001
RWRMI
MICHIGAN HOURLY REGIONAL WEATHER ROUNDUP
NATIONAL WEATHER SERVICE DETROIT/PONTIAC MI
400 PM EDT WED SEP 20 2017

NOTE: "FAIR" INDICATES FEW OR NO CLOUDS BELOW 12,000 FEET WITH NO
SIGNIFICANT WEATHER AND/OR OBSTRUCTION TO VISIBILITY.

MIZ047>049-052>055-059>063-066>070-074>076-081>083-202100-
SOUTHEAST LOWER MICHIGAN

CITY           SKY/WX    TMP DP  RH WIND       PRES   REMARKS
ADRIAN         SUNNY     82  64  54 VRB5      30.00S
ALMA           SUNNY     83  59  44 SW6G18    29.96F
ANN ARBOR      MOSUNNY   83  64  52 VRB3      29.98S
BAD AXE        MOSUNNY   80  67  64 SE5       29.97F
CARO           PTSUNNY   80  65  58 S7        29.97S
DETROIT CITY   MOSUNNY   81  65  58 S8        29.98F
DETROIT        MOSUNNY   80  65  59 S9        30.00S
FLINT          MOSUNNY   82  63  52 S5        29.98F
GROSSE ILE     SUNNY     77  66  69 S6        29.98F
HILLSDALE      CLOUDY    81  64  57 SW7       30.00F
HOWELL         PTSUNNY   81  62  52 SW7       29.99S

CITY           SKY/WX    TMP DP  RH WIND       PRES   REMARKS
JACKSON        SUNNY     84  61  45 S8        29.98F
LAMBERTVILLE   MOSUNNY   85  65  50 W6        29.98S
LANSING        SUNNY     85  58  39 SW9       29.97F
LAPEER         FAIR      81  62  52 S8        29.99F
MASON          SUNNY     84  61  45 CALM      29.97F
MONROE         PTSUNNY   82  68  63 S6        29.98S
PONTIAC        PTSUNNY   79  65  62 S7        29.98S
PORT HOPE        N/A     70  67  90 SE15      29.96
PORT HURON     MOSUNNY   82  64  54 S7        29.98F
TRI CITIES     PTSUNNY   81  66  60 SW8       29.97F
MIDLAND        PTSUNNY   80  65  60 S3        29.96S
TROY           PTSUNNY   81  63  53 CALM      30.01R
SAGINAW HB     CLOUDY    79  64  61 S8        29.97F
$$
MIZ043>046-050>051-056>058-064>065-071>073-077>080-202100-
SOUTHWEST LOWER MICHIGAN

CITY           SKY/WX    TMP DP  RH WIND       PRES   REMARKS
BATTLE CREEK   SUNNY     85  66  53 CALM      29.98F
BENTON HARBOR  MOSUNNY   86  68  54 S10       29.92F
BIG RAPIDS     SUNNY     80  61  51 S7G16     29.94F
COLDWATER      MOSUNNY   82  65  57 SE6       29.98F
FREMONT        FAIR      85  62  46 SE8       29.92F
HOLLAND        SUNNY     88  66  48 S9        29.93F HX  90
GRAND RAPIDS   MOSUNNY   85  64  49 S8        29.94F
IONIA          FAIR      85  57  38 CALM      29.94F
KALAMAZOO      SUNNY     85  64  49 S8        29.96F
LUDINGTON      SUNNY     83  65  54 S8G16     29.88F
MARSHALL         N/A     84  64  51 W3        29.97
MOUNT PLEASANT SUNNY     82  62  49 SW3       29.95F
MUSKEGON       MOSUNNY   88  65  46 S14       29.91F HX  90
SOUTH HAVEN    SUNNY     87  67  51 S7        29.93F
$$
MIZ016>042-202100-
NORTHERN LOWER MICHIGAN

CITY           SKY/WX    TMP DP  RH WIND       PRES   REMARKS
ALPENA         SUNNY     73  68  84 E8        29.96F
BEAVER ISLAND  CLOUDY    77  65  65 SE10G16   29.89F
BELLAIRE       CLOUDY    80  63  54 S10G20    29.91S
CADILLAC       SUNNY     80  61  50 S12       29.95F
CHARLEVOIX     CLOUDY    81  64  55 S13       29.92F
FRANKFORT      MOSUNNY   85  61  44 S13G21    29.87S
GAYLORD        CLOUDY    75  63  66 S13G21    29.96S
GRAYLING       PTSUNNY   76  62  63 SE13      29.97F
HARBOR SPRINGS CLOUDY    80  64  56 S3        29.91S
HOUGHTON LAKE  CLOUDY    76  64  66 S8        29.98F
MANISTEE       SUNNY     83  65  54 SE9G18    29.87F
OSCODA         MOSUNNY   78  65  65 SE9       29.96F
PELLSTON       CLOUDY    81  65  58 S8        29.92S
ROGERS CITY    MOSUNNY   77  66  69 SE12      29.96R
TRAVERSE CITY  CLOUDY    83  63  50 SE12G20   29.88F
$$
MIZ007>008-015-202100-
EASTERN UPPER MICHIGAN

CITY           SKY/WX    TMP DP  RH WIND       PRES   REMARKS
KINROSS        CLOUDY    73  66  78 SE17G24   29.93F
MACKINAC ISLAN PTSUNNY   72  66  81 E6        29.92R
NEWBERRY       CLOUDY    74  68  80 SE13G22   29.88F
S. S. MARIE    CLOUDY    70  65  84 E6        29.93S
MUNISING         N/A     75  65  70 S15G28    29.80S
$$
MIZ004>006-011>014-085-202100-
CENTRAL UPPER MICHIGAN

CITY           SKY/WX    TMP DP  RH WIND       PRES   REMARKS
MANISTIQUE     MOSUNNY   71  65  81 SE10      29.88S
ESCANABA       CLOUDY    70  66  87 S13       29.85S
MENOMINEE      SUNNY     75  65  70 S18       29.82F
SAWYER-GWINN   MOSUNNY   72  61  68 S21G31    29.84R
$$
MIZ001>003-009>011-084-202100-
WESTERN UPPER MICHIGAN

CITY           SKY/WX    TMP DP  RH WIND       PRES   REMARKS
IRON MOUNTAIN  CLOUDY    71  64  78 S6        29.83R
HOUGHTON       CLOUDY    71  63  75 S14G25    29.76F
COPPER HARBOR    N/A     69  60  73 SW6       29.76R
IRONWOOD       CLOUDY    70  65  84 S13G18    29.77R
$$

ABBREVIATIONS USED IN REMARKS
   TC - TEMPERATURE IN CELSIUS
  WCI - WIND CHILL INDEX
   HX - HEAT INDEX
  VSB - VISIBILITY





USA.gov is the U.S. government's official web portal to all federal, state and local government web resources and services.